Wind_Speed
20 20 20 20 21 21 21 21 20 19 19 19 20 20 21 23 22 19 20 21 22 22 22 23 23 23 24 24 25 27 28 29 31 32 33 34 35 36 36 37 38 39 39
26 26 25 25 25 25 25 24 24 23 23 22 22 23 24 25 26 26 25 25 26 26 26 27 27 27 28 29 30 31 33 34 35 37 38 39 39 40 41 42 42 43 43
30 31 32 32 30 30 30 30 28 27 27 27 26 26 27 28 29 31 31 30 29 29 30 31 31 31 31 32 34 35 37 38 39 41 42 43 44 45 46 46 46 47 47
34 35 36 36 34 33 33 33 32 31 32 31 30 30 29 30 31 33 34 34 31 30 31 33 33 34 34 35 36 38 40 41 42 44 46 47 48 49 50 51 52 52 51
36 37 37 38 36 35 33 34 34 33 33 33 31 30 28 28 29 31 32 33 33 32 32 32 32 34 36 37 39 41 43 44 46 48 49 51 52 54 55 56 57 57 57
38 37 37 36 34 33 33 33 33 33 32 33 31 28 27 26 26 26 27 28 28 29 31 31 32 34 36 39 42 44 47 49 51 53 55 56 57 59 60 61 62 62 63
37 37 35 34 34 32 30 28 29 30 30 29 28 25 24 24 25 25 26 28 30 31 33 36 37 38 40 42 45 48 51 53 56 58 60 61 62 64 65 66 67 67 68
37 37 34 33 32 31 28 26 25 24 25 25 25 25 26 26 27 28 29 31 33 34 35 38 41 44 46 48 50 53 55 57 59 61 63 65 67 68 69 70 71 72 72
38 35 33 31 31 30 29 27 26 25 24 24 25 26 25 26 27 29 31 33 36 38 41 44 47 49 52 54 56 58 60 61 62 64 66 68 70 71 72 74 75 76 76
39 35 33 31 31 31 30 29 28 27 27 26 26 27 28 31 32 34 36 38 40 43 46 49 51 54 57 59 62 63 64 65 66 68 69 71 72 73 74 75 76 77 78
39 36 34 32 31 31 31 30 30 30 30 30 30 32 33 35 37 40 42 44 47 50 52 54 57 59 61 63 65 66 67 68 69 71 71 72 72 73 74 75 75 76 77
38 37 35 34 33 33 31 31 32 32 32 33 34 36 38 40 42 45 47 49 52 55 58 60 62 64 65 66 68 68 68 68 69 70 71 72 72 73 73 73 73 73 74
39 38 37 36 35 34 34 34 34 34 36 37 39 40 42 44 47 50 52 54 56 58 61 63 65 67 68 69 70 69 69 69 70 70 71 72 72 72 72 72 71 71 71
40 39 39 38 37 36 36 36 37 38 40 41 43 44 47 49 51 54 56 58 59 60 62 64 65 66 67 69 69 69 70 71 72 72 71 70 68 66 64 63 62 62 62
42 42 41 41 39 39 39 39 40 41 42 44 46 48 50 53 55 57 59 61 62 62 62 63 65 66 67 67 69 69 70 70 69 67 64 62 59 57 55 53 53 53 53
44 43 43 43 42 42 42 43 44 45 46 48 50 51 53 56 58 59 61 62 63 63 62 63 65 66 67 67 68 68 66 63 60 57 54 51 49 48 47 46 45 44 44
47 47 47 46 46 46 46 47 48 49 50 51 53 54 56 58 59 59 60 61 61 62 62 62 65 66 66 65 64 61 58 54 51 48 46 45 44 44 44 42 41 40 39
51 51 50 50 50 50 50 51 52 53 54 54 56 57 57 58 58 58 58 59 61 62 63 62 62 62 61 58 56 53 50 47 44 43 42 42 41 41 41 40 39 37 36
53 53 53 53 53 53 53 54 55 55 56 57 57 57 57 57 57 57 58 59 60 61 61 61 58 56 53 50 48 46 43 42 41 40 39 39 38 38 38 38 36 34 32
54 54 54 54 54 55 55 56 57 57 57 57 57 56 56 56 56 57 57 58 59 59 58 55 52 48 45 43 42 40 39 38 37 37 37 37 37 36 35 35 34 32 30
55 54 54 55 55 55 56 57 57 57 56 56 55 55 55 55 55 55 56 56 56 54 52 48 43 39 38 38 37 36 35 34 33 34 33 33 34 33 33 32 31 30 29
54 54 55 56 56 56 56 56 56 56 56 55 54 54 54 53 53 53 53 52 50 48 43 38 35 35 35 34 33 32 32 31 29 30 30 30 31 30 30 29 29 28 27
54 55 55 55 55 55 55 55 55 55 53 53 52 52 51 51 49 49 48 47 43 39 35 33 33 33 31 31 30 30 29 29 29 29 28 28 28 28 27 26 25 25 25
52 52 53 53 54 54 54 54 53 52 51 50 49 48 47 46 45 44 41 38 34 32 31 32 31 30 30 30 30 29 29 28 28 28 27 27 26 24 23 22 21 21 22
50 51 52 52 52 51 51 50 49 48 47 46 45 44 42 41 39 36 32 29 27 28 29 29 29 29 30 31 30 29 28 27 25 25 26 25 23 22 21 19 18 18 19
49 49 49 49 48 48 48 47 46 45 44 42 40 38 35 33 31 27 24 22 23 24 25 26 28 29 29 29 29 28 27 25 24 23 23 22 20 18 17 16 15 16 17
Wind_Direction
328 319 309 299 291 281 277 276 274 272 270 268 269 270 270 272 273 270 270 271 271 271 272 273 275 276 277 279 281 282 282 282 282 281 280 279 278 277 276 275 274 273 272
330 327 318 309 298 284 276 273 273 269 269 270 269 270 271 273 277 276 273 272 272 273 274 274 275 277 278 281 282 283 283 283 283 282 282 280 279 278 277 275 274 273 271
330 326 323 315 307 295 283 277 275 270 269 270 272 273 273 275 276 277 275 270 269 270 272 273 274 276 278 280 282 283 284 284 283 283 282 281 280 279 278 276 275 273 271
330 326 324 320 313 303 294 285 279 273 272 275 273 273 275 277 277 278 279 276 271 267 269 273 276 278 279 282 283 283 283 283 283 282 281 280 280 279 278 276 275 273 271
327 326 326 324 318 309 301 293 287 282 278 278 277 277 277 276 278 278 278 279 279 276 274 272 275 278 280 282 283 283 283 283 282 281 280 278 277 276 275 274 274 273 271
326 328 329 328 323 315 304 298 292 287 284 282 281 278 274 276 279 283 283 283 286 286 286 285 282 281 280 282 283 283 283 283 282 280 279 277 276 275 273 272 271 270 269
328 330 330 328 329 326 315 305 298 293 290 285 282 279 279 282 285 286 287 287 287 286 286 286 286 285 283 281 281 281 281 281 281 280 279 278 276 274 273 271 270 269 267
324 327 327 327 328 330 324 317 309 306 298 291 289 291 290 289 289 287 287 286 286 286 284 284 284 285 285 284 283 282 281 280 280 279 278 277 276 275 273 272 270 269 267
316 319 323 326 329 331 327 323 321 314 312 308 303 298 294 291 290 290 288 288 288 289 288 288 288 288 287 286 285 284 284 282 281 279 278 277 276 275 274 272 271 269 268
310 313 317 320 321 324 324 322 321 318 315 313 311 306 300 294 292 290 288 287 287 287 286 286 287 287 287 287 286 286 285 284 282 281 279 278 277 276 275 273 272 271 269
306 309 311 314 314 316 317 317 316 313 311 308 304 301 297 294 293 291 291 291 291 291 290 289 289 288 288 288 287 286 286 285 283 282 280 280 279 277 276 275 274 272 271
302 305 306 307 309 310 309 309 309 308 306 303 301 299 296 294 293 293 292 292 292 292 292 291 291 290 290 289 289 288 287 285 284 283 282 281 280 279 278 276 274 273 271
298 299 301 302 303 304 303 304 305 304 303 301 299 297 295 294 293 292 292 292 292 292 292 292 292 293 292 292 291 290 289 287 286 285 284 283 281 280 279 277 276 274 272
295 296 296 297 298 300 301 301 302 301 300 299 298 296 295 293 293 292 292 292 292 292 293 293 293 293 292 292 292 291 290 289 288 287 286 285 283 282 280 279 277 276 274
292 293 293 295 296 297 298 299 299 299 297 296 296 295 294 293 293 293 293 293 293 293 293 294 293 293 293 292 292 291 291 290 290 289 287 286 285 283 281 280 278 278 277
289 291 292 293 294 295 296 297 298 297 297 296 295 294 293 293 293 293 293 294 295 295 295 295 294 294 293 293 293 292 292 292 291 289 288 287 286 285 283 282 281 280 278
288 290 291 292 293 294 295 296 296 296 296 295 294 294 293 294 294 295 296 296 296 296 296 296 295 295 295 295 295 294 293 292 291 289 288 287 286 285 284 283 282 281 280
287 289 290 291 293 294 294 295 296 296 296 295 295 295 295 296 297 297 297 297 298 298 298 297 297 297 297 296 295 295 294 293 292 291 290 289 287 286 284 283 282 281 281
285 287 288 290 291 292 294 295 295 295 296 296 296 297 298 298 299 299 299 299 299 299 299 299 299 299 298 297 297 297 297 296 295 293 292 290 289 287 285 283 282 281 280
284 285 287 289 291 293 294 294 295 296 296 297 298 298 299 300 300 300 300 300 300 300 301 302 302 301 300 300 301 301 300 299 298 296 295 294 292 289 285 282 281 280 280
282 285 287 290 291 292 293 294 295 296 296 297 298 299 300 301 301 300 300 301 302 303 304 304 305 304 304 304 304 303 303 303 302 300 300 297 295 292 287 283 280 278 277
285 288 289 291 292 292 293 294 295 296 297 298 299 300 300 300 301 301 302 303 304 305 306 307 307 308 308 308 308 308 308 308 306 304 304 302 300 297 291 285 280 275 274
288 289 290 291 292 292 293 294 296 296 297 298 299 300 300 301 302 302 303 305 306 308 310 311 312 313 313 314 314 314 313 312 312 311 311 308 304 301 296 289 282 275 271
288 289 290 291 292 293 294 295 295 297 298 298 299 300 301 302 303 304 305 307 309 311 313 315 317 318 318 319 319 319 318 317 316 315 314 313 310 307 302 294 285 277 272
290 290 291 292 293 294 295 295 296 297 298 299 300 301 302 302 303 304 306 307 310 313 316 319 320 321 322 322 322 321 322 321 320 318 318 318 316 313 308 300 290 281 276
291 291 292 293 293 294 295 295 296 296 297 298 299 299 300 301 302 304 306 310 314 317 320 323 325 326 328 329 331 329 327 326 326 326 326 326 325 322 317 308 298 289 284
Height
5881 5879 5878 5876 5875 5874 5873 5872 5872 5872 5871 5871 5871 5871 5870 5868 5868 5870 5870 5869 5869 5868 5868 5868 5867 5867 5866 5866 5865 5864 5863 5863 5862 5861 5860 5859 5858 5857 5857 5856 5856 5856 5856
5877 5875 5874 5872 5870 5869 5867 5866 5867 5866 5866 5866 5866 5866 5865 5864 5863 5863 5864 5864 5864 5863 5863 5862 5862 5861 5861 5860 5859 5858 5856 5855 5854 5852 5851 5850 5849 5848 5848 5847 5847 5846 5846
5873 5871 5869 5866 5864 5863 5861 5861 5861 5860 5860 5860 5861 5861 5860 5860 5859 5857 5857 5858 5858 5858 5857 5856 5855 5854 5854 5853 5851 5850 5848 5847 5845 5844 5842 5841 5839 5838 5837 5837 5836 5836 5836
5869 5866 5864 5860 5857 5855 5854 5853 5854 5854 5853 5854 5854 5854 5854 5854 5853 5852 5850 5849 5850 5851 5851 5849 5848 5847 5845 5844 5843 5841 5839 5837 5836 5834 5832 5830 5828 5827 5826 5824 5823 5823 5823
5865 5862 5858 5854 5850 5848 5847 5846 5846 5847 5847 5847 5847 5848 5848 5847 5847 5846 5845 5843 5842 5842 5843 5843 5841 5839 5838 5836 5834 5832 5829 5827 5825 5823 5820 5818 5816 5814 5813 5811 5810 5809 5809
5861 5858 5854 5850 5846 5843 5841 5840 5839 5839 5840 5840 5840 5841 5841 5841 5840 5840 5839 5837 5836 5835 5833 5833 5833 5831 5830 5827 5824 5821 5818 5815 5813 5810 5807 5804 5802 5800 5798 5796 5795 5793 5793
5857 5854 5850 5846 5842 5839 5836 5834 5833 5833 5833 5833 5834 5834 5834 5834 5833 5833 5832 5831 5829 5828 5827 5824 5822 5820 5819 5817 5814 5810 5807 5803 5799 5795 5792 5789 5786 5783 5781 5779 5778 5776 5776
5853 5850 5847 5843 5840 5836 5833 5830 5829 5828 5828 5827 5828 5829 5829 5828 5827 5826 5825 5823 5821 5819 5817 5814 5812 5809 5806 5803 5800 5797 5793 5789 5785 5780 5775 5772 5768 5765 5763 5761 5759 5757 5756
5848 5846 5843 5839 5836 5833 5830 5827 5826 5824 5823 5823 5822 5822 5822 5821 5820 5819 5817 5814 5812 5809 5806 5803 5799 5796 5792 5788 5784 5780 5777 5773 5769 5763 5758 5753 5749 5746 5743 5740 5738 5736 5735
5843 5840 5838 5835 5832 5829 5826 5823 5821 5819 5818 5816 5815 5814 5813 5812 5811 5809 5807 5804 5802 5799 5795 5791 5786 5782 5777 5772 5767 5763 5759 5754 5749 5744 5739 5734 5729 5726 5722 5719 5716 5714 5713
5836 5834 5832 5829 5827 5824 5821 5818 5815 5813 5811 5810 5808 5806 5804 5802 5800 5797 5795 5792 5788 5784 5780 5776 5771 5766 5761 5755 5750 5746 5741 5736 5730 5724 5718 5714 5709 5705 5701 5697 5695 5692 5690
5829 5827 5825 5823 5820 5817 5814 5812 5809 5807 5804 5802 5800 5798 5795 5792 5789 5786 5783 5780 5775 5770 5764 5759 5753 5748 5742 5736 5731 5727 5722 5716 5709 5703 5698 5692 5688 5683 5679 5676 5672 5670 5668
5822 5820 5818 5815 5813 5810 5807 5805 5802 5799 5796 5794 5791 5788 5784 5781 5777 5773 5770 5766 5762 5757 5750 5743 5736 5730 5723 5716 5711 5706 5700 5694 5688 5682 5677 5671 5666 5661 5657 5653 5650 5647 5645
5813 5811 5809 5807 5804 5801 5799 5796 5793 5790 5787 5783 5780 5776 5772 5768 5764 5759 5755 5751 5747 5742 5735 5727 5720 5712 5706 5698 5691 5685 5679 5673 5666 5660 5654 5649 5644 5640 5636 5631 5628 5625 5623
5804 5802 5800 5797 5794 5792 5789 5786 5783 5780 5776 5772 5769 5765 5760 5755 5750 5745 5739 5734 5730 5726 5721 5712 5703 5695 5689 5681 5673 5667 5661 5654 5646 5640 5633 5628 5624 5620 5616 5613 5610 5607 5604
5794 5792 5789 5787 5784 5781 5778 5775 5772 5768 5764 5760 5756 5752 5747 5742 5736 5730 5725 5718 5712 5707 5704 5696 5686 5678 5671 5663 5655 5648 5642 5635 5629 5622 5616 5612 5608 5604 5601 5597 5594 5591 5589
5783 5781 5778 5775 5773 5770 5766 5763 5759 5756 5752 5747 5743 5738 5733 5727 5722 5716 5709 5703 5696 5690 5685 5680 5670 5661 5652 5645 5637 5630 5624 5618 5613 5607 5602 5598 5594 5591 5587 5584 5581 5578 5575
5772 5770 5767 5764 5760 5757 5754 5750 5746 5743 5739 5734 5729 5724 5719 5713 5707 5701 5695 5688 5682 5674 5667 5663 5654 5645 5636 5628 5621 5615 5609 5604 5599 5595 5590 5586 5582 5578 5575 5571 5569 5566 5564
5761 5757 5754 5751 5748 5745 5741 5737 5733 5729 5725 5720 5715 5710 5705 5700 5694 5687 5681 5674 5667 5659 5651 5644 5638 5629 5621 5613 5607 5602 5596 5591 5587 5582 5578 5574 5570 5566 5563 5560 5557 5555 5553
5748 5745 5742 5738 5735 5732 5728 5724 5720 5716 5711 5706 5701 5697 5691 5686 5680 5673 5666 5659 5652 5645 5637 5629 5622 5615 5608 5601 5595 5590 5586 5581 5576 5571 5566 5562 5558 5555 5551 5548 5546 5545 5543
5735 5731 5728 5725 5722 5719 5714 5710 5706 5702 5698 5693 5689 5683 5678 5673 5666 5659 5652 5645 5638 5631 5623 5616 5610 5604 5598 5592 5586 5580 5576 5571 5566 5561 5557 5552 5548 5544 5540 5538 5536 5535 5533
5722 5719 5715 5712 5708 5705 5701 5697 5693 5689 5685 5680 5676 5670 5665 5660 5654 5647 5639 5632 5625 5619 5612 5607 5601 5596 5590 5583 5578 5572 5567 5563 5558 5554 5548 5543 5538 5534 5530 5528 5526 5525 5524
5709 5705 5702 5699 5695 5691 5688 5684 5680 5676 5671 5667 5663 5658 5652 5647 5641 5635 5628 5621 5615 5609 5604 5599 5594 5588 5582 5577 5571 5566 5560 5555 5550 5545 5540 5535 5530 5525 5522 5519 5517 5516 5516
5696 5693 5689 5686 5682 5677 5674 5670 5666 5663 5659 5655 5650 5646 5640 5635 5630 5624 5618 5613 5607 5602 5597 5592 5587 5582 5576 5570 5564 5559 5554 5549 5543 5537 5533 5528 5523 5518 5514 5511 5509 5509 5508
5682 5679 5675 5672 5668 5664 5660 5657 5654 5650 5647 5643 5639 5635 5630 5625 5620 5615 5611 5607 5602 5598 5593 5587 5582 5576 5570 5564 5558 5553 5547 5542 5537 5532 5527 5522 5517 5513 5509 5506 5504 5503 5502
5669 5665 5662 5658 5655 5652 5648 5644 5641 5639 5635 5632 5628 5624 5620 5616 5612 5609 5605 5602 5598 5594 5589 5584 5578 5572 5566 5560 5553 5547 5542 5537 5532 5527 5522 5517 5512 5508 5505 5502 5500 5498 5497